Weather History for Roosevelt Roads, PR

Change the Weather History Date:

Thursday, August 29, 2013

  Actual Average Record
Temperature  
Mean Temperature 83 °F -  
Max Temperature 89 °F 86 °F 91 °F (2002)
Min Temperature 77 °F 74 °F 75 °F (1999)
Cooling Degree Days 18    
Growing Degree Days 33 (Base 50)    
Moisture  
Dew Point 76 °F    
Average Humidity 79    
Maximum Humidity 94    
Minimum Humidity 65    
Precipitation  
Precipitation 0.18 in - - ()
Sea Level Pressure  
Sea Level Pressure 30.02 in    
Wind  
Wind Speed 7 mph (East)    
Max Wind Speed 14 mph    
Max Gust Speed 28 mph    
Visibility 9 miles    
Events Rain    
Averages and records for this station are not official NWS values.
T = Trace of Precipitation, MM = Missing Value Source: NWS Daily Summary

Daily Weather History Graph

Daily Weather History Graph

Search for Another Location

Airport:

Trip Planner

Search our weather history database for the weather conditions in past years. The results will help you decide how hot, cold, wet, or windy it might be!

Date:

Astronomy

Aug. 29, 2013 Rise Set
Actual Time 6:07 AM AST 6:38 PM AST
Civil Twilight 5:45 AM AST 7:01 PM AST
Nautical Twilight 5:19 AM AST 7:26 PM AST
Astronomical Twilight 4:53 AM AST 7:53 PM AST
Moon 12:20 AM AST (8/29) 1:39 PM AST (8/29)
Length of Visible Light 13h 15m
Length of Day
12h 31m
Last Quarter, 38% of the Moon is Illuminated
Aug 29
Last Quarter
Sep 5
New
Sep 12
First Quarter
Sep 19
Full
Sep 26
Last Quarter

Hourly Weather History & Observations

Time (AST) Temp. Heat Index Dew Point Humidity Pressure Visibility Wind Dir Wind Speed Gust Speed Precip Events Conditions
12:53 AM 82.9 °F 90.8 °F 75.9 °F 79% 30.04 in 10.0 mi East 6.9 mph - N/A   Partly Cloudy
1:53 AM 82.0 °F 89.4 °F 75.9 °F 82% 30.03 in 10.0 mi East 5.8 mph - N/A   Clear
2:53 AM 82.9 °F 90.8 °F 75.9 °F 79% 30.01 in 10.0 mi East 5.8 mph - N/A   Mostly Cloudy
3:02 AM 82.4 °F 89.5 °F 75.2 °F 79% 30.01 in 10.0 mi East 5.8 mph - N/A   Scattered Clouds
3:53 AM 82.9 °F 90.8 °F 75.9 °F 79% 30.00 in 10.0 mi East 5.8 mph - N/A   Mostly Cloudy
4:24 AM 82.4 °F 89.5 °F 75.2 °F 79% 30.00 in 10.0 mi ESE 11.5 mph - N/A   Scattered Clouds
4:53 AM 82.9 °F 91.8 °F 77.0 °F 82% 30.00 in 10.0 mi East 5.8 mph - N/A   Scattered Clouds
5:53 AM 82.0 °F 89.4 °F 75.9 °F 82% 30.01 in 10.0 mi East 5.8 mph - N/A   Partly Cloudy
6:15 AM 78.8 °F - 73.4 °F 83% 30.02 in 2.0 mi East 13.8 mph 27.6 mph 0.11 in Rain Light Rain
6:17 AM 77.0 °F - 73.4 °F 89% 30.02 in 1.2 mi East 8.1 mph 27.6 mph 0.16 in Rain Heavy Rain
6:33 AM 77.0 °F - 75.2 °F 94% 30.02 in 10.0 mi Calm Calm - 0.17 in   Overcast
6:53 AM 77.0 °F - 75.0 °F 94% 30.03 in 10.0 mi NW 3.5 mph - 0.17 in   Mostly Cloudy
7:30 AM 80.6 °F 87.1 °F 77.0 °F 89% 30.03 in 10.0 mi Calm Calm - N/A   Mostly Cloudy
7:53 AM 84.0 °F 94.8 °F 78.1 °F 82% 30.04 in 10.0 mi Calm Calm - N/A   Mostly Cloudy
8:53 AM 84.9 °F 95.3 °F 77.0 °F 77% 30.05 in 10.0 mi East 9.2 mph - N/A   Clear
9:53 AM 87.1 °F 99.8 °F 78.1 °F 74% 30.06 in 10.0 mi ENE 9.2 mph - 0.01 in   Clear
10:53 AM 88.0 °F 100.2 °F 77.0 °F 70% 30.05 in 10.0 mi ENE 9.2 mph - N/A   Clear
11:53 AM 89.1 °F 101.4 °F 77.0 °F 67% 30.03 in 10.0 mi ENE 10.4 mph - N/A   Partly Cloudy
12:53 PM 89.1 °F 103.2 °F 78.1 °F 70% 30.02 in 10.0 mi ENE 9.2 mph - N/A   Scattered Clouds
1:53 PM 88.0 °F 98.5 °F 75.9 °F 67% 30.00 in 10.0 mi ENE 10.4 mph - N/A   Clear
2:53 PM 89.1 °F 100.2 °F 75.9 °F 65% 29.97 in 10.0 mi East 10.4 mph 17.3 mph N/A   Partly Cloudy
3:53 PM 87.1 °F 97.3 °F 75.9 °F 69% 29.98 in 10.0 mi East 10.4 mph - N/A   Partly Cloudy
4:53 PM 84.9 °F 94.1 °F 75.9 °F 74% 29.98 in 10.0 mi ESE 8.1 mph - N/A   Partly Cloudy
5:53 PM 82.0 °F 88.6 °F 75.0 °F 79% 29.99 in 10.0 mi South 5.8 mph - N/A   Mostly Cloudy
6:53 PM 82.9 °F 90.8 °F 75.9 °F 79% 30.00 in 10.0 mi Calm Calm - N/A   Partly Cloudy
7:53 PM 82.9 °F 91.8 °F 77.0 °F 82% 30.01 in 10.0 mi ESE 4.6 mph - N/A   Partly Cloudy
8:53 PM 82.9 °F 91.8 °F 77.0 °F 82% 30.03 in 10.0 mi East 6.9 mph - N/A   Clear
9:53 PM 82.9 °F 91.8 °F 77.0 °F 82% 30.03 in 10.0 mi SE 6.9 mph - N/A   Partly Cloudy
10:53 PM 82.0 °F 89.4 °F 75.9 °F 82% 30.03 in 10.0 mi SSE 3.5 mph - N/A   Scattered Clouds
11:53 PM 82.0 °F 90.2 °F 77.0 °F 85% 30.02 in 10.0 mi SSE 4.6 mph - N/A   Scattered Clouds